Saguache, CO

3:34 PM MST on February 21, 2017 (GMT -0700)
Saguache

Weather History for K04V - July, 2013

Change the Weather History Date:

Monday, July 29, 2013

  Actual Average (KALS) Record (KALS)
Temperature  
Mean Temperature 64 °F -  
Max Temperature 77 °F 81 °F 91 °F (2016)
Min Temperature 50 °F 48 °F 39 °F (1986)
Degree Days  
Heating Degree Days 2    
Growing Degree Days 14 (Base 50)    
Moisture  
Dew Point 45 °F    
Average Humidity 59    
Maximum Humidity 100    
Minimum Humidity 27    
Precipitation  
Precipitation 0.00 in - - ()
Sea Level Pressure  
Sea Level Pressure 30.30 in    
Wind  
Wind Speed 7 mph (NW)    
Max Wind Speed 32 mph    
Max Gust Speed 39 mph    
Visibility 10 miles    
Events Thunderstorm    
Averages and records for this station are not official NWS values.
T = Trace of Precipitation, MM = Missing Value Source: NWS Daily Summary

Daily Weather History Graph

Daily Weather History Graph

Search for Another Location

Airport or City:

Trip Planner

Search our weather history database for the weather conditions in past years. The results will help you decide how hot, cold, wet, or windy it might be!

Date:

Astronomy

Jul. 29, 2013 Rise Set
Actual Time 6:05 AM MDT 8:16 PM MDT
Civil Twilight 5:35 AM MDT 8:46 PM MDT
Nautical Twilight 4:59 AM MDT 9:22 PM MDT
Astronomical Twilight 4:20 AM MDT 10:01 PM MDT
Moon No Moon Rise 1:41 PM MDT (7/29)
Length of Visible Light 15h 10m
Length of Day
14h 11m
Waning Gibbous, 50% of the Moon is Illuminated
Jul 29
Waning Gibbous
Aug 6
New
Aug 14
First Quarter
Aug 20
Full
Aug 28
Last Quarter

Hourly Weather History & Observations

Time (MDT) Temp. Dew Point Humidity Pressure Visibility Wind Dir Wind Speed Gust Speed Precip Events Conditions
12:13 AM 53.6 °F 51.8 °F 94% 30.26 in 10.0 mi Calm Calm - N/A   Overcast
12:33 AM 53.6 °F 51.8 °F 94% 30.26 in 10.0 mi North 4.6 mph - N/A   Overcast
12:53 AM 51.8 °F 51.8 °F 100% 30.25 in 10.0 mi Calm Calm - N/A   Mostly Cloudy
1:13 AM 51.8 °F 51.8 °F 100% 30.25 in 10.0 mi NNW 5.8 mph - N/A   Scattered Clouds
1:32 AM 51.8 °F 50.0 °F 94% 30.25 in 10.0 mi NW 5.8 mph - N/A   Clear
1:53 AM 51.8 °F 50.0 °F 94% 30.24 in 10.0 mi NW 3.5 mph - N/A   Scattered Clouds
2:13 AM 50.0 °F 50.0 °F 100% 30.25 in 10.0 mi WNW 5.8 mph - N/A   Clear
2:33 AM 51.8 °F 50.0 °F 94% 30.25 in 10.0 mi NNW 5.8 mph - N/A   Mostly Cloudy
2:53 AM 51.8 °F 50.0 °F 94% 30.25 in 10.0 mi NNW 6.9 mph - N/A   Overcast
3:13 AM 51.8 °F 50.0 °F 94% 30.24 in 10.0 mi NW 5.8 mph - N/A   Scattered Clouds
3:33 AM 51.8 °F 50.0 °F 94% 30.24 in 10.0 mi NNW 5.8 mph - N/A   Mostly Cloudy
3:53 AM 51.8 °F 50.0 °F 94% 30.23 in 10.0 mi NNW 8.1 mph - N/A   Mostly Cloudy
4:13 AM 51.8 °F 50.0 °F 94% 30.23 in 10.0 mi NNW 8.1 mph - N/A   Overcast
4:33 AM 53.6 °F 50.0 °F 88% 30.23 in 10.0 mi NW 8.1 mph - N/A   Overcast
4:53 AM 53.6 °F 50.0 °F 88% 30.23 in 10.0 mi NW 9.2 mph - N/A   Overcast
5:13 AM 51.8 °F 48.2 °F 88% 30.23 in 10.0 mi NW 8.1 mph - N/A   Scattered Clouds
5:33 AM 51.8 °F 48.2 °F 88% 30.24 in 10.0 mi NW 10.4 mph - N/A   Clear
5:53 AM 51.8 °F 48.2 °F 88% 30.26 in 10.0 mi NW 15.0 mph - N/A   Clear
6:12 AM 51.8 °F 48.2 °F 88% 30.27 in 10.0 mi NW 9.2 mph - N/A   Clear
6:33 AM 51.8 °F 48.2 °F 88% 30.28 in 10.0 mi NNW 6.9 mph - N/A   Scattered Clouds
6:53 AM 55.4 °F 48.2 °F 77% 30.28 in 10.0 mi NW 4.6 mph - N/A   Scattered Clouds
7:12 AM 57.2 °F 50.0 °F 77% 30.28 in 10.0 mi Calm Calm - N/A   Mostly Cloudy
7:32 AM 57.2 °F 48.2 °F 72% 30.27 in 10.0 mi WNW 3.5 mph - N/A   Overcast
7:53 AM 55.4 °F 48.2 °F 77% 30.28 in 10.0 mi Calm Calm - N/A   Mostly Cloudy
8:13 AM 59.0 °F 48.2 °F 67% 30.28 in 10.0 mi WNW 3.5 mph - N/A   Scattered Clouds
8:32 AM 59.0 °F 50.0 °F 72% 30.29 in 10.0 mi Calm Calm - N/A   Clear
8:52 AM 60.8 °F 48.2 °F 63% 30.29 in 10.0 mi NW 6.9 mph - N/A   Clear
9:12 AM 60.8 °F 46.4 °F 59% 30.29 in 10.0 mi Calm Calm - N/A   Clear
9:33 AM 64.4 °F 48.2 °F 56% 30.29 in 10.0 mi NNW 4.6 mph - N/A   Clear
9:53 AM 64.4 °F 48.2 °F 56% 30.29 in 10.0 mi West 5.8 mph - N/A   Clear
10:12 AM 64.4 °F 50.0 °F 59% 30.29 in 10.0 mi Calm Calm - N/A   Clear
10:33 AM 66.2 °F 48.2 °F 52% 30.29 in 10.0 mi NNW 3.5 mph - N/A   Scattered Clouds
10:53 AM 68.0 °F 46.4 °F 46% 30.29 in 10.0 mi NNW 8.1 mph 17.3 mph N/A   Mostly Cloudy
11:12 AM 68.0 °F 44.6 °F 43% 30.29 in 10.0 mi NNW 12.7 mph 18.4 mph N/A   Mostly Cloudy
11:33 AM 69.8 °F 44.6 °F 40% 30.29 in 10.0 mi North 9.2 mph 21.9 mph N/A   Scattered Clouds
11:53 AM 69.8 °F 44.6 °F 40% 30.29 in 10.0 mi North 9.2 mph 23.0 mph N/A   Mostly Cloudy
12:13 PM 73.4 °F 44.6 °F 36% 30.29 in 10.0 mi NW 15.0 mph 21.9 mph N/A   Scattered Clouds
12:33 PM 71.6 °F 44.6 °F 38% 30.29 in 10.0 mi NNW 17.3 mph 25.3 mph N/A   Scattered Clouds
12:52 PM 71.6 °F 44.6 °F 38% 30.29 in 10.0 mi NW 15.0 mph 21.9 mph N/A   Scattered Clouds
1:13 PM 71.6 °F 44.6 °F 38% 30.29 in 10.0 mi NNW 19.6 mph 26.5 mph N/A   Mostly Cloudy
1:33 PM 73.4 °F 42.8 °F 33% 30.29 in 10.0 mi NNW 12.7 mph 21.9 mph N/A   Mostly Cloudy
1:53 PM 75.2 °F 42.8 °F 31% 30.29 in 10.0 mi NNW 13.8 mph 20.7 mph N/A   Scattered Clouds
2:13 PM 73.4 °F 42.8 °F 33% 30.28 in 10.0 mi NNW 8.1 mph 20.7 mph N/A   Scattered Clouds
2:33 PM 77.0 °F 41.0 °F 28% 30.29 in 10.0 mi NW 15.0 mph 26.5 mph N/A Thunderstorm Thunderstorm
2:53 PM 75.2 °F 41.0 °F 29% 30.29 in 10.0 mi WNW 12.7 mph - N/A   Scattered Clouds
3:13 PM 77.0 °F 41.0 °F 28% 30.29 in 10.0 mi NW 17.3 mph 23.0 mph N/A   Scattered Clouds
3:33 PM 73.4 °F 42.8 °F 33% 30.29 in 10.0 mi NNW 27.6 mph 36.8 mph N/A   Scattered Clouds
3:53 PM 75.2 °F 42.8 °F 31% 30.29 in 10.0 mi NNW 18.4 mph 23.0 mph N/A   Scattered Clouds
4:13 PM 75.2 °F 41.0 °F 29% 30.29 in 10.0 mi North 15.0 mph 18.4 mph N/A   Scattered Clouds
4:32 PM 75.2 °F 42.8 °F 31% 30.29 in 10.0 mi WNW 9.2 mph 20.7 mph N/A   Scattered Clouds
4:53 PM 75.2 °F 39.2 °F 27% 30.30 in 10.0 mi NW 16.1 mph 24.2 mph N/A   Mostly Cloudy
5:13 PM 77.0 °F 41.0 °F 28% 30.30 in 10.0 mi NW 11.5 mph 17.3 mph N/A   Scattered Clouds
5:33 PM 75.2 °F 41.0 °F 29% 30.30 in 10.0 mi NNW 10.4 mph - N/A   Clear
5:52 PM 75.2 °F 41.0 °F 29% 30.31 in 10.0 mi NW 23.0 mph 31.1 mph N/A   Scattered Clouds
6:13 PM 71.6 °F 39.2 °F 31% 30.31 in 10.0 mi WNW 18.4 mph 28.8 mph N/A   Scattered Clouds
6:33 PM 69.8 °F 41.0 °F 35% 30.31 in 10.0 mi NW 15.0 mph - N/A   Mostly Cloudy
6:53 PM 69.8 °F 39.2 °F 33% 30.32 in 10.0 mi WNW 12.7 mph - N/A   Mostly Cloudy
7:13 PM 71.6 °F 39.2 °F 31% 30.32 in 10.0 mi West 10.4 mph - N/A   Mostly Cloudy
7:32 PM 69.8 °F 37.4 °F 31% 30.33 in 10.0 mi NW 9.2 mph - N/A   Scattered Clouds
7:52 PM 66.2 °F 42.8 °F 43% 30.34 in 10.0 mi SW 6.9 mph - N/A   Clear
8:13 PM 64.4 °F 42.8 °F 45% 30.34 in 10.0 mi Calm Calm - N/A   Clear
8:33 PM 62.6 °F 44.6 °F 52% 30.35 in 10.0 mi Calm Calm - N/A   Clear
8:52 PM 60.8 °F 44.6 °F 55% 30.36 in 10.0 mi NE 3.5 mph - N/A   Clear
9:13 PM 60.8 °F 42.8 °F 52% 30.40 in 10.0 mi NNW 32.2 mph 39.1 mph N/A Thunderstorm Scattered Clouds
9:33 PM 57.2 °F 42.8 °F 59% 30.44 in 10.0 mi North 27.6 mph 39.1 mph N/A   Scattered Clouds
9:53 PM 57.2 °F 41.0 °F 55% 30.43 in - North 23.0 mph - N/A   Unknown
10:13 PM 59.0 °F 41.0 °F 51% 30.43 in 10.0 mi NW 15.0 mph 20.7 mph N/A   Overcast
10:33 PM 57.2 °F 41.0 °F 55% 30.43 in 10.0 mi NW 17.3 mph 24.2 mph N/A   Scattered Clouds
10:53 PM 57.2 °F 41.0 °F 55% 30.42 in 10.0 mi NW 16.1 mph 23.0 mph N/A   Clear
11:13 PM 57.2 °F 41.0 °F 55% 30.42 in 10.0 mi NW 11.5 mph - N/A   Clear
11:33 PM 55.4 °F 42.8 °F 63% 30.43 in 10.0 mi North 6.9 mph - N/A   Clear
11:53 PM 55.4 °F 41.0 °F 58% 30.43 in 10.0 mi Calm Calm - N/A   Clear